Regional Weather Roundup
Issued by NWS

Home | Current Version | Previous Version | Graphics & Text | Print | Product List | Glossary On
Versions: 1 2 3 4 5 6 7 8 9 10 11 12 13 14 15 16 17 18 19 20 21 22 23 24 25 26 27 28 29 30 31 32 33 34 35 36 37 38 39 40 41 42 43 44 45 46 47 48 49 50
792
ASUS45 KABQ 290001
RWRNM
NEW MEXICO REGIONAL WEATHER ROUNDUP
NATIONAL WEATHER SERVICE ALBUQUERQUE NM
600 PM MDT TUE MAR 28 2017

NOTE: "FAIR" MEANS FEW OR NO CLOUDS BELOW 12,000 FEET AGL WITH NO
       SIGNIFICANT WEATHER OR OBSTRUCTIONS TO VISION.

      THIS PRODUCT IS RELEASED AS TWO VERSIONS.  ONE VERSION NEAR
      THE TOP OF THE HOUR CONTAINING PRELIMINARY DATA FROM ALBUQUERQUE
      AND OTHER STATIONS.  A FINAL VERSION WITH ADDITIONAL DATA IS
      ISSUED ABOUT 10 MINUTES AFTER THE HOUR.

NMZ501-503-504-510>518-290100-
NORTHWEST PLATEAU/NORTHCENTRAL MOUNTAINS

CITY           SKY/WX    TMP DP  RH WIND       PRES   REMARKS
FARMINGTON     FAIR      50  34  54 NW18G26   29.78R
6HR MIN TEMP:  47; 6HR MAX TEMP:  53; 6HR PCP: TRACE;

LOS ALAMOS     DRIZZLE   36  36 100 SW14G20   29.83R WCI  27
SANTA FE       CLOUDY    42  38  85 SW13      29.81R
6HR MIN TEMP:  38; 6HR MAX TEMP:  50; 6HR PCP: TRACE;

TAOS             N/A     39  30  70 N6        29.83R WCI  35
ANGEL FIRE     CLOUDY    34  32  92 W6        29.83R WCI  29

$$
NMZ402-403-502-505>509-290100-
WESTCENTRAL MOUNTAINS/SOUTHWEST MOUNTAINS

CITY           SKY/WX    TMP DP  RH WIND       PRES   REMARKS
GALLUP         HVY RAIN  44  34  67 NE8       29.86S
6HR MIN TEMP:  41; 6HR MAX TEMP:  51; 6HR PCP:  0.06;

GRANTS         CLOUDY    40  35  80 NW18G29   29.87R WCI  31
SILVER CITY    CLOUDY    56  26  32 W25G35    29.85R

$$
NMZ407-409-411-412-290100-
SOUTHERN DESERTS

CITY           SKY/WX    TMP DP  RH WIND       PRES   REMARKS
DEMING         FAIR      60  28  29 W25G38    29.82R
6HR MIN TEMP:  52; 6HR MAX TEMP:  62;

LAS CRUCES     CLOUDY    51  35  55 N8        29.84R
HOLLOMAN AFB   PTSUNNY   54  37  53 SW18      29.81R
ALAMOGORDO     LGT RAIN  50  39  66 W21G30    29.79R
T OR C         FAIR      53  36  52 SE5       29.78R
6HR MIN TEMP:  47; 6HR MAX TEMP:  58; 6HR PCP:  0.09;


$$
NMZ519>523-290100-
CENTRAL VALLEYS/CENTRAL HIGHLANDS

CITY           SKY/WX    TMP DP  RH WIND       PRES   REMARKS
ALBUQUERQUE    PTSUNNY   49  35  58 NE9       29.81S
6HR MIN TEMP:  41; 6HR MAX TEMP:  55; 6HR PCP:  0.11;

DOUBLE EAGLE   PTSUNNY   48  36  61 NW13      29.82R
MORIARTY ARPT  FAIR      45  38  77 NW8       29.82F
6HR MIN TEMP:  38; 6HR MAX TEMP:  49; 6HR PCP:  0.07;

CLINES CORNERS FAIR      37  34  89 W14       29.81F WCI  28
6HR MIN TEMP:  34; 6HR MAX TEMP:  47; 6HR PCP:  0.06;

BELEN          CLOUDY    51  33  50 N9        29.82R
6HR MIN TEMP:  47; 6HR MAX TEMP:  56;

SOCORRO        PTSUNNY   56  28  33 N13G20    29.78R
6HR MIN TEMP:  51; 6HR MAX TEMP:  59;


$$
NMZ524>526-539-540-290100-
SOUTHCENTRAL MOUNTAINS

CITY           SKY/WX    TMP DP  RH WIND       PRES   REMARKS
RUIDOSO        NOT AVBL

$$
NMZ527>531-290100-
NORTHEAST HIGHLANDS/NORTHEAST PLAINS

CITY           SKY/WX    TMP DP  RH WIND       PRES   REMARKS
LAS VEGAS      FAIR      47  25  42 S16       29.77R
6HR MIN TEMP:  39; 6HR MAX TEMP:  52; 6HR PCP:  0.05;

RATON          PTSUNNY   48  39  71 NE12      29.76S
6HR MIN TEMP:  47; 6HR MAX TEMP:  54; 6HR PCP: TRACE;

CLAYTON        NOT AVBL

$$
NMZ532>537-290100-
EASTCENTRAL PLAINS

CITY           SKY/WX    TMP DP  RH WIND       PRES   REMARKS
TUCUMCARI      TSTM      45  40  82 W15       29.78R VSB 1
6HR MIN TEMP:  45; 6HR MAX TEMP:  70; 6HR PCP:  0.48;

CANNON AFB     FAIR      66  26  22 W20       29.67S
6HR MIN TEMP:  63; 6HR MAX TEMP:  73;

CLOVIS AIRPORT CLOUDY    61  46  59 N20G25    29.69R

$$
NMZ028-029-538-290100-
SOUTHEAST PLAINS

CITY           SKY/WX    TMP DP  RH WIND       PRES   REMARKS
ROSWELL        FAIR      67  23  19 SW10G28   29.68R
6HR MIN TEMP:  67; 6HR MAX TEMP:  78; 6HR PCP: TRACE;

ARTESIA        FAIR      64  28  25 SW15G24   29.67F
CARLSBAD       CLOUDY    63  29  27 W17G26    29.70R
6HR MIN TEMP:  62; 6HR MAX TEMP:  79;

HOBBS          PTSUNNY   66  23  19 W25G32    29.70R


$$




USA.gov is the U.S. government's official web portal to all federal, state and local government web resources and services.